{"data":{"norad_id":66620,"intl_designator":"2025-271D","name":"STARLINK-35936","alt_names":[],"object_type":"PAYLOAD","status":"ACTIVE","operator":null,"country":"US","launch_date":"2025-11-23","launch_site_code":"AFWTR","launch_vehicle":null,"mission":null,"orbit_class":"UNKNOWN","rcs_meters":null,"size_class":null,"mass_kg":null,"dimensions":null,"purposes":["comms"],"wikipedia_slug":null,"has_3d_model":false,"image_url":null,"decayed_at":null,"tle_current":{"epoch":"2026-09-20T09:59:42.563040Z","epoch_age_seconds":93751,"freshness":"FRESH","line1":"1 66620U 25271D   26263.41646485  .00007905  00000+0  24490-3 0  9996","line2":"2 66620  53.1604 313.7934 0001971 149.1044 211.0075 15.34394635 47406","mean_motion":15.34394635,"eccentricity":0.0001971,"inclination_deg":53.1604,"raan_deg":313.7934,"arg_perigee_deg":149.1044,"mean_anomaly_deg":211.0075,"bstar":0.0002449,"rev_number":4740,"period_min":93.848086219358,"perigee_km":461.3708534099,"apogee_km":464.06751891848,"semimajor_km":6840.8561861642,"source":"CELESTRAK","updated_at":"2026-09-21T09:00:35.982521Z"}}}